Regional Weather Roundup
Issued by NWS

Home | Current Version | Previous Version | Graphics & Text | Print | Product List | Glossary On
Versions: 1 2 3 4 5 6 7 8 9 10 11 12 13 14 15 16 17 18 19 20 21 22 23 24 25 26 27 28 29 30 31 32 33 34 35 36 37 38 39 40 41 42 43 44 45 46 47 48 49 50
000
ASUS43 KDMX 201606
RWRIA

WEATHER ROUNDUP FOR IOWA
NATIONAL WEATHER SERVICE DES MOINES IA
1000 AM CST MON NOV 20 2017

NOTE: "FAIR" INDICATES FEW OR NO CLOUDS BELOW 12,000 FEET WITH NO
SIGNIFICANT WEATHER AND/OR OBSTRUCTIONS TO VISIBILITY.

* - THESE STATIONS ARE NOT NWS STATIONS...THUS NOT UNDER NWS
QUALITY CONTROL.  THEY ALSO DO NOT REPORT WEATHER SUCH
AS PRECIPITATION OR FOG.

IAZ001>003-012>014-020>022-031>034-043>046-201700-
   NORTHWEST IOWA

CITY           SKY/WX    TMP DP  RH WIND       PRES   REMARKS
CARROLL *      CLOUDY    46  27  46 SW28G36   29.67S
CHEROKEE *     CLOUDY    42  29  60 S15       29.62F
DENISON *      CLOUDY    45  27  49 SW15G22   29.69F
LE MARS *      CLOUDY    41  28  60 S14G20    29.62S
ORANGE CITY *  CLOUDY    41  30  65 SW14      29.60F
SHELDON *      CLOUDY    41  28  60 S14       29.57F
SIOUX CITY     CLOUDY    42  29  59 SW7       29.65S
SPENCER        CLOUDY    42  28  57 S14G22    29.59F
STORM LAKE *   MIX PCPN  41  27  56 SW18      29.62F
$$

IAZ055>058-069>071-079>083-090>094-201700-
   SOUTHWEST IOWA

CITY           SKY/WX    TMP DP  RH WIND       PRES   REMARKS
ATLANTIC *     SUNNY     46  28  49 S21       29.73S
AUDUBON *      SUNNY     46  28  49 SW15G28   29.71F
CLARINDA *     SUNNY     50  28  43 SW20G29     N/A
COUNCIL BLFS * SUNNY     46  27  46 SW21G28   29.71F
CRESTON *      SUNNY     50  28  43 SW21G30   29.78F
HARLAN  *      CLOUDY    45  28  53 SW16G24   29.74F
LAMONI         SUNNY     50  29  44 SW22G29   29.80F
RED OAK *      SUNNY     50  28  43 S17G25    29.75F
SHENANDOAH *   SUNNY     50  27  40 S18G28    29.77F
$$

IAZ047>049-059>061-072>074-084-201700-
   CENTRAL IOWA

CITY           SKY/WX    TMP DP  RH WIND       PRES   REMARKS
AMES           SUNNY     48  31  51 SW20      29.71F
ANKENY *       SUNNY     50  28  43 SW22G29   29.74F
BOONE *        SUNNY     46  28  49 SW15G24   29.68F
CHARITON *     SUNNY     48  30  49 SW20G31   29.79F
DES MOINES     PTSUNNY   50  27  40 SW16G24   29.74F
GRINNELL*      SUNNY     47  31  55 SW17G25   29.77F
KNOXVILLE *    SUNNY     50  27  40 SW17G29   29.76F
MARSHALLTOWN   SUNNY     46  30  53 S15G23    29.72F
NEWTON *       SUNNY     48  30  49 S20G26    29.75F
PELLA *        SUNNY     49  28  43 SW14G26   29.79F
PERRY *          N/A     47  26  44 SW24      29.70F
$$

IAZ004>006-015-016-023>025-035-036-201700-
   NORTH CENTRAL IOWA

CITY           SKY/WX    TMP DP  RH WIND       PRES   REMARKS
ALGONA *       CLOUDY    41  32  70 S18G25    29.63S
CLARION *      CLOUDY    41  34  75 S17       29.66F
ESTHERVILLE    CLOUDY    39  29  67 SW14      29.59F WCI  31
FORT DODGE *   CLOUDY    44  30  57 SW18G25   29.67S
MASON CITY     CLOUDY    42  29  59 S15       29.66F
FOREST CITY *    N/A     43  30  61 S14       29.64F
WEBSTER CITY * CLOUDY    46  28  49 SW20G26   29.65F
IOWA FALLS *     N/A     44  31  59 S20G26    29.70F
$$

IAZ007>011-017>019-026>030-037>042-050>054-066-201700-
   NORTHEAST IOWA

CITY           SKY/WX    TMP DP  RH WIND       PRES   REMARKS
CEDAR RAPIDS   SUNNY     47  31  53 S16       29.77F
CHARLES CITY * CLOUDY    41  32  70 S15G22    29.69F
CLINTON *      SUNNY     46  31  55 SW22      29.84F
DECORAH *      CLOUDY    41  30  65 VRB7G15   29.69F
DUBUQUE        CLOUDY    42  30  62 SW16      29.78F
MONTICELLO *   SUNNY     43  30  61 S12       29.79F
OELWEIN *      CLOUDY    41  34  75 S16G23    29.73F
WATERLOO       SUNNY     44  29  55 S15       29.72F
$$

IAZ064-065-067-068-078-201700-
   EAST CENTRAL IOWA

CITY           SKY/WX    TMP DP  RH WIND       PRES   REMARKS
DAVENPORT      SUNNY     46  29  51 SW18      29.86F
IOWA CITY      SUNNY     47  31  53 S16G24    29.83F
MT. PLEASANT * SUNNY     47  31  54 S21       29.86F
MUSCATINE *    SUNNY     46  30  53 SW16G24   29.85F
QUAD CITIES    SUNNY     46  29  51 SW15G23   29.85F
$$

IAZ062-063-075>077-085>089-095>099-201700-
   SOUTHEAST IOWA

CITY           SKY/WX    TMP DP  RH WIND       PRES   REMARKS
BURLINGTON     SUNNY     48  33  56 S21G28    29.88F
FAIRFIELD *    SUNNY     50  28  43 SW22G28   29.82F
FORT MADISON * SUNNY     48  32  53 S17G24    29.89F
KEOKUK *       SUNNY     48  32  53 SW20G26   29.89F
OSKALOOSA *      N/A     50  32  49 SW20G25   29.80F
OTTUMWA        SUNNY     51  29  42 SW18G25   29.81F
WASHINGTON *   SUNNY     48  32  53 SW21      29.83F
$$

ABBREVIATIONS USED IN REMARKS
   TC - TEMPERATURES IN CELSIUS
  WCI - WIND CHILL INDEX
   HX - HEAT INDEX
  VSB - VISIBILITY
$$





USA.gov is the U.S. government's official web portal to all federal, state and local government web resources and services.